Weather History for KBIV - March, 2012

Change the Weather History Date:

Wednesday, March 7, 2012

  Actual Average Record
Temperature  
Mean Temperature 61 °F 34 °F  
Max Temperature 65 °F 41 °F 70 °F (1983)
Min Temperature 56 °F 26 °F 1 °F (1978)
Degree Days  
Heating Degree Days 4 31  
Month to date heating degree days 226  
Since 1 July heating degree days 4726  
Cooling Degree Days 0 0  
Month to date cooling degree days 0  
Year to date cooling degree days 0  
Growing Degree Days 10 (Base 50)    
Moisture  
Dew Point 40 °F    
Average Humidity 46    
Maximum Humidity 56    
Minimum Humidity 36    
Precipitation  
Precipitation 0.00 in 0.08 in 0.64 in (2009)
Month to date precipitation 0.51 0.57  
Year to date precipitation 4.46  
Sea Level Pressure  
Sea Level Pressure 29.92 in    
Wind  
Wind Speed 27 mph (SSW)    
Max Wind Speed 37 mph    
Max Gust Speed 52 mph    
Visibility 10 miles    
Events      
T = Trace of Precipitation, MM = Missing Value Source: NWS Daily Summary

Daily Weather History Graph

Daily Weather History Graph

Search for Another Location

Airport or City:

Trip Planner

Search our weather history database for the weather conditions in past years. The results will help you decide how hot, cold, wet, or windy it might be!

Date:

Astronomy

Mar. 07, 2012 Rise Set
Actual Time 7:09 AM EST 6:41 PM EST
Civil Twilight 6:41 AM EST 7:10 PM EST
Nautical Twilight 6:08 AM EST 7:42 PM EST
Astronomical Twilight 5:35 AM EST 8:15 PM EST
Moon 6:18 PM EST (3/7) 6:19 AM EST (3/7)
Length of Visible Light 12h 28m
Length of Day
11h 32m
Waxing Gibbous, 99% of the Moon is Illuminated
Mar 7
Waxing Gibbous
Mar 8
Full
Mar 14
Last Quarter
Mar 22
New
Mar 30
First Quarter

Hourly Weather History & Observations

Time (EST) Temp. Dew Point Humidity Pressure Visibility Wind Dir Wind Speed Gust Speed Precip Events Conditions
12:53 AM 59.0 °F 35.1 °F 41% 29.99 in 10.0 mi SSW 25.3 mph 41.4 mph N/A   Clear
1:53 AM 57.9 °F 34.0 °F 41% 30.00 in 10.0 mi SSW 26.5 mph 39.1 mph N/A   Clear
2:53 AM 57.0 °F 32.0 °F 39% 30.00 in 10.0 mi SSW 23.0 mph 36.8 mph N/A   Partly Cloudy
3:53 AM 57.0 °F 30.0 °F 36% 29.99 in 10.0 mi SSW 24.2 mph 35.7 mph N/A   Clear
4:53 AM 57.0 °F 30.0 °F 36% 29.99 in 10.0 mi SSW 26.5 mph 39.1 mph N/A   Scattered Clouds
5:53 AM 55.9 °F 30.0 °F 37% 30.00 in 10.0 mi SSW 24.2 mph 39.1 mph N/A   Overcast
7:53 AM 57.0 °F 32.0 °F 39% 29.99 in 10.0 mi SSW 28.8 mph 40.3 mph N/A   Overcast
8:53 AM 57.9 °F 33.1 °F 39% 29.99 in 10.0 mi SSW 29.9 mph 40.3 mph N/A   Overcast
9:53 AM 59.0 °F 35.1 °F 41% 29.97 in 10.0 mi SSW 26.5 mph 43.7 mph N/A   Mostly Cloudy
10:53 AM 60.1 °F 37.0 °F 42% 29.96 in 10.0 mi SSW 27.6 mph 51.8 mph N/A   Overcast
11:53 AM 60.1 °F 39.0 °F 46% 29.95 in 10.0 mi SSW 32.2 mph 44.9 mph N/A   Overcast
12:53 PM 61.0 °F 41.0 °F 48% 29.94 in 10.0 mi SSW 25.3 mph 39.1 mph N/A   Overcast
1:53 PM 63.0 °F 43.0 °F 48% 29.91 in 10.0 mi SSW 25.3 mph 34.5 mph N/A   Overcast
2:53 PM 63.0 °F 44.1 °F 50% 29.89 in 10.0 mi SSW 29.9 mph 41.4 mph N/A   Overcast
3:53 PM 64.0 °F 45.0 °F 50% 29.87 in 10.0 mi SSW 27.6 mph 33.4 mph N/A   Overcast
4:53 PM 63.0 °F 45.0 °F 52% 29.87 in 10.0 mi SSW 27.6 mph 43.7 mph N/A   Overcast
5:53 PM 64.0 °F 44.1 °F 48% 29.87 in 10.0 mi SSW 27.6 mph 39.1 mph N/A   Overcast
6:53 PM 64.0 °F 45.0 °F 50% 29.86 in 10.0 mi SSW 26.5 mph 39.1 mph N/A   Overcast
7:53 PM 63.0 °F 46.0 °F 54% 29.87 in 10.0 mi SSW 27.6 mph 41.4 mph N/A   Overcast
8:53 PM 63.0 °F 46.9 °F 56% 29.85 in 10.0 mi SSW 24.2 mph 38.0 mph N/A   Overcast
9:53 PM 63.0 °F 46.9 °F 56% 29.84 in 10.0 mi SSW 27.6 mph 41.4 mph N/A   Overcast
10:53 PM 63.0 °F 46.9 °F 56% 29.80 in 10.0 mi SSW 33.4 mph 44.9 mph N/A   Overcast
11:53 PM 64.0 °F 48.0 °F 56% 29.78 in 10.0 mi SSW 33.4 mph 46.0 mph N/A   Overcast